Flag for Germany Weather past 2 weeks in Bayreuth, Bavaria, Germany

Now
55 °F

More clouds than sun.


Feels Like: 53 °F
Forecast: 39 / 57 °F
Wind: 8 mph from Northwest

Location: Grafenwoehr

Current Time: May 26, 2015 at 6:45:06 PM

Latest Report: May 26, 2015 at 5:58 PM


Visibility: N/A

Pressure: 30.05 "Hg

Humidity: 55%

Dew point: 39 °F

Location of BayreuthLocation

Historic Weather in Bayreuth — Graph

°F

Bayreuth temperature yesterday

Maximum temperature yesterday: 68 °F (at 2:58 PM)
Minimum temperature yesterday: 50 °F (at 3:58 AM)
Average temperature yesterday: 55 °F

Past Weeks' High & Low Weather Summary

 TemperatureHumidityPressure
High79 °F (May 12, 3:58 PM)100% (May 13, 3:58 AM)30.33 "Hg (May 13, 3:58 AM)
Low34 °F (May 22, 5:58 AM)28% (May 22, 2:58 PM)29.70 "Hg (May 19, 2:58 AM)
Average55 °F67%30.03 "Hg
* Reported May 11 6:58 PM — May 26 5:58 PM, Bayreuth, Weather by CustomWeather, © 2015

Note: Actual official high and low records may vary slightly from our data, if they occured in-between our weather recording intervals... More about our weather records

Advertising

Bayreuth weather history for previous 24 hours

 ConditionsComfort  
Time TempWeatherWind HumidityBarometerVisibility
5:58 PM
Tue, May 26
55 °FMore clouds than sun.8 mph56%30.05 "HgN/A
4:58 PM55 °FOvercast.9 mph55%30.04 "HgN/A
3:58 PM55 °FOvercast.9 mph61%30.03 "HgN/A
2:58 PM55 °FMore clouds than sun.7 mph59%30.03 "HgN/A
1:58 PM55 °FOvercast.9 mph52%30.02 "HgN/A
12:58 PM57 °FOvercast.8 mph51%30.01 "HgN/A
11:58 AM56 °FBroken clouds.6 mph54%30.00 "HgN/A
10:58 AM57 °FPartly sunny.10 mph55%29.98 "HgN/A
9:58 AM54 °FPassing clouds.8 mph69%29.98 "HgN/A
8:58 AM52 °FSunny.6 mph81%29.97 "HgN/A
7:58 AM48 °FPartly sunny.3 mph90%29.97 "HgN/A
7:00 AM46 °FMostly cloudy.No wind93%29.94 "HgN/A
6:58 AM47 °FLight rain. Mostly cloudy.1 mph93%29.96 "HgN/A
5:58 AM47 °FLight rain. Overcast.5 mph95%29.95 "HgN/A
4:58 AM50 °FLight rain. Mostly cloudy.3 mph94%29.91 "HgN/A
4:02 AM52 °FDrizzle. Mostly cloudy.8 mph94%29.89 "HgN/A
3:58 AM51 °FMostly cloudy.12 mph98%29.88 "HgN/A
2:58 AM50 °FFog.No wind100%29.88 "Hg4 mi
1:58 AM50 °FMostly cloudy.2 mph98%29.88 "HgN/A
12:58 AM50 °FFog.1 mph100%29.88 "Hg6 mi
11:59 PM
Mon, May 25
50 °FFog.No wind94%29.90 "Hg3 mi
11:03 PM50 °FFog.No wind100%29.90 "Hg1 mi
11:01 PM50 °FFog.No wind100%29.90 "Hg1 mi
9:58 PM52 °FMore clouds than sun.1 mph94%29.90 "HgN/A
8:58 PM52 °FOvercast.1 mph94%29.90 "HgN/A
7:58 PM52 °FOvercast.1 mph94%29.91 "HgN/A
6:58 PM52 °FLight rain. Partly sunny.2 mph94%29.91 "HgN/A
Weather by CustomWeather, © 2015

See weather overviewHow to use our weather pages